Location: Jitoni
(45.4667°N, 23.2667°E)
Time: 23:53:43
(UTC+00:00)

Daily predictions for brighter satellites

Satellite Brightness Start Highest point End
(mag) Time Altitude Azimuth Time Altitude Azimuth Time Altitude Azimuth
BREEZE-M DEB (TANK) 2.7 15:08:41 10° WNW 15:11:09 47° N 15:17:03 10° E
Meteor 1-27 4.4 15:07:47 10° S 15:13:36 89° W 15:19:25 10° N
ARIANE 5 R/B 3.1 15:11:23 10° SE 15:15:54 34° ENE 15:20:29 10° N
Lacrosse 4 Rocket 3.0 15:14:28 10° WSW 15:18:00 28° NW 15:21:30 10° N
CZ-2D R/B 4.1 15:16:11 10° ESE 15:18:31 20° ENE 15:20:54 10° NNE
BREEZE-M DEB (TANK) 2.0 15:20:27 10° SSW 15:21:54 27° SSE 15:23:39 10° E
Cosmos 1315 Rocket 3.5 15:19:00 10° SSW 15:22:45 54° WNW 15:26:31 10° N
Cosmos 1733 1.7 15:21:19 10° N 15:22:48 31° ENE 15:24:17 10° SSE
Cosmos 1758 Rocket 3.6 15:18:43 10° N 15:22:58 55° ENE 15:27:10 10° SSE
Cosmos 2208 Rocket 4.0 15:17:51 10° NNW 15:22:59 61° ENE 15:28:06 10° SSE
Cosmos 1980 Rocket 4.0 15:22:25 10° ESE 15:23:51 11° E 15:25:18 10° E
Cosmos 2098 Rocket 3.3 15:20:08 10° SSE 15:23:55 47° E 15:28:25 10° NNE
Iridium 51 3.9 15:20:55 10° S 15:24:01 74° W 15:27:13 10° N
Cosmos 2151 3.4 15:25:19 10° N 15:29:12 37° ENE 15:33:05 10° SE
NOSS 3-2 (C) 3.4 15:25:10 10° S 15:29:51 46° ESE 15:35:21 10° NE
NOSS 3-2 (A) 3.3 15:24:55 10° SW 15:29:52 73° NW 15:35:52 10° NE
SL-08 ROCKET BODY 4.4 15:24:03 10° N 15:29:59 68° E 15:35:59 10° SSE
SL-16 R/B 2.7 15:26:04 10° NNE 15:32:19 81° WNW 15:38:29 10° SSW
Cosmos 1743 2.5 15:30:01 10° N 15:33:10 45° ENE 15:36:17 10° SSE
CBERS-1 4.2 15:30:19 10° S 15:35:25 78° WSW 15:40:34 10° NNW
Cosmos 2263 Rocket 3.4 15:32:11 10° N 15:36:22 21° NE 15:40:32 10° E
CORIOLIS 4.1 15:32:23 10° SSE 15:37:41 71° ENE 15:43:00 10° N
IGS 5A 3.8 15:39:20 10° S 15:43:16 66° W 15:47:14 10° NNW
MOS 1 Rocket 3.8 15:39:37 10° SE 15:44:12 43° ENE 15:49:02 10° N
GEOS 3 Rocket 3.8 15:39:09 10° NE 15:44:32 80° NW 15:49:54 10° SW
Radarsat 4.5 15:39:55 10° SSE 15:45:02 70° ENE 15:50:13 10° N
Cosmos 1626 Rocket 3.8 15:41:59 10° NNW 15:46:18 70° W 15:50:34 10° S
AQUARIUS 4.3 15:44:33 10° SE 15:48:46 47° ENE 15:53:01 10° N
Cosmos 2360 4.2 15:43:12 10° SSW 15:48:53 84° ESE 15:54:40 10° NNE
Cosmos 2227 Rocket 2.7 15:44:11 10° NNW 15:49:27 37° NE 15:54:39 10° ESE
NOSS 2-2 (D) 3.9 15:48:06 10° WSW 15:51:15 37° NW 15:53:56 11° NNE
Thor Agena Rocket 3.8 15:46:45 10° S 15:51:58 77° WSW 15:57:10 10° NNW
Cosmos 1933 3.7 15:48:32 10° SSE 15:52:05 38° E 15:55:39 10° NNE
Cosmos 1606 Rocket 4.0 15:49:28 10° SSE 15:53:33 39° E 15:57:41 10° NNE
SJ-12 3.7 15:50:15 10° SSE 15:53:58 59° ENE 15:57:42 10° N
Cosmos 2084 Rocket 3.6 15:50:58 10° NNW 15:55:05 49° NE 15:59:09 10° ESE
Cosmos 724 4.3 15:50:40 10° NNW 15:56:44 81° NE 16:02:38 10° SE
BlueWalker 3 2.7 15:55:01 10° WNW 15:58:32 48° SW 16:02:02 10° SE
Meteor 1-28 Rocket 4.5 15:57:13 10° N 16:00:18 35° WNW 16:03:22 10° SW
Cosmos 1503 Rocket 3.9 15:55:13 10° SSW 16:00:26 73° ESE 16:05:39 10° NNE
CZ-2D R/B 4.3 15:57:13 10° SE 16:00:49 29° ENE 16:04:25 10° N
Cosmos 1544 Rocket 4.4 15:58:21 10° SSW 16:02:38 53° WNW 16:06:59 10° N
IRS-1C 4.1 15:57:46 10° SSE 16:03:05 85° ENE 16:08:26 10° NNW
COSMO-SKYMED 1 3.6 16:02:54 21° E 16:03:36 22° E 16:06:48 10° SE
Resurs 1-3 4.5 16:00:15 10° ESE 16:03:47 26° ENE 16:07:21 10° N
Cosmos 1697 Rocket 2.8 15:58:57 10° S 16:04:22 54° ESE 16:09:00 14° NE
NOSS 2-2 (E) 4.1 16:02:51 10° WSW 16:05:56 33° NW 16:08:06 15° NNE
BREEZE-M DEB (TANK) 3.9 16:02:01 10° SSW 16:06:06 24° SSE 16:07:20 19° ESE
Cosmos 1354 Rocket 4.0 16:03:30 10° S 16:08:40 60° ESE 16:13:15 13° NNE
BREEZE M DEB (TANK) 3.4 15:57:36 10° WNW 16:09:19 78° SSW 16:12:30 13° ESE
IRIDIUM 104 4.4 16:06:12 10° N 16:11:28 85° W 16:16:41 10° S
Okean 1-7 Rocket 3.4 16:08:39 10° N 16:13:04 81° E 16:17:25 10° S
Spot 4 Rocket 4.4 16:09:34 10° SE 16:14:17 39° ENE 16:19:02 10° N
SAR-Lupe-3 3.6 16:14:26 52° E 16:14:36 54° ESE 16:17:04 10° S
Lacrosse 5 rocket 3.1 16:12:19 10° WNW 16:14:51 17° NNW 16:16:22 14° NNE
Cosmos 1655 Rocket 4.1 16:10:25 10° N 16:16:31 52° ENE 16:22:33 10° SSE
SJ-6F 4.2 16:13:21 10° SSE 16:17:18 80° ENE 16:21:20 10° N
Cosmos 1461 2.8 16:13:57 10° SW 16:17:49 75° NW 16:20:08 23° NNE
Cosmos 1726 Rocket 3.7 16:14:18 10° S 16:18:49 55° E 16:22:51 13° NNE
Gbstr 26 Del rocket 2.8 16:15:11 10° SW 16:19:12 60° SE 16:20:36 35° E
CENTAUR R/B 4.1 16:14:19 10° W 16:19:31 27° NNW 16:25:22 11° NNE
Cosmos 1777 Rocket 4.3 16:14:26 10° SSW 16:19:40 68° WNW 16:24:55 10° NNE
Meteor 1-20 Rocket 4.4 16:16:44 10° NNW 16:22:11 73° W 16:27:36 10° S
Cosmos 1602 Rocket 4.4 16:20:24 10° NNW 16:24:40 51° W 16:28:52 10° S
SKYMED 2 3.6 16:22:23 19° NNE 16:25:25 57° E 16:29:41 10° S
NOSS 2-3 (C) 3.7 16:22:22 10° S 16:25:34 35° ESE 16:25:41 34° ESE
Meteor 2-10 4.5 16:22:34 10° N 16:27:36 40° ENE 16:32:46 10° SE
SMAP 4.5 16:24:25 10° SSW 16:28:48 40° W 16:33:12 10° NNW
USA 238 DEB 3.9 16:24:15 10° S 16:29:54 43° ESE 16:32:29 29° ENE
USA 238 3.9 16:24:23 10° S 16:30:01 42° ESE 16:32:34 29° ENE
YAOGAN 1 2.6 16:28:24 10° SSE 16:32:30 50° ENE 16:36:38 10° N
USA 215 4.0 16:35:28 26° NE 16:38:05 35° N 16:43:53 10° NW
Cosmos 1867 3.6 16:33:22 10° NW 16:38:50 85° WSW 16:44:17 10° SSE
NOSS 7 (H) 4.0 16:38:27 10° NW 16:41:17 82° WNW 16:41:17 82° WNW
Cosmos 2297 Rocket 3.5 16:37:01 10° NW 16:42:18 41° WSW 16:47:34 10° S
Cosmos 372 Rocket 4.2 16:41:12 10° S 16:46:06 46° ESE 16:46:32 45° E
Aureole 1 Rocket 3.4 16:42:37 10° S 16:46:40 49° ESE 16:46:49 49° E
Cosmos 1953 Rocket 3.4 16:43:14 10° N 16:47:41 79° E 16:52:08 10° SSE
ATLAS CENTAUR R/B 4.0 16:47:29 10° WNW 16:49:17 14° WSW 16:51:03 10° SSW
Cosmos-2242 3.7 16:45:53 10° SSE 16:48:42 36° SE 16:48:42 36° SE
BREEZE-M DEB (TANK) 4.4 16:20:54 10° W 16:50:43 75° N 16:54:02 36° E
CZ-4C R/B 3.3 16:43:57 10° NW 16:51:07 70° WSW 16:59:51 10° SSE
ARIANE 5 R/B 4.2 16:50:22 10° SSW 16:54:54 33° W 16:59:30 10° NNW
Cosmos 990 Rocket 4.3 16:51:34 10° SSW 16:56:38 64° WNW 16:59:48 23° N
USA 81 3.9 16:52:29 10° N 16:57:47 78° E 17:03:02 10° S
NOAA 6 3.9 16:54:20 10° SSE 16:59:23 67° ENE 17:04:27 10° N
NOSS 2-3 (E) 3.2 16:55:51 10° SW 16:59:21 74° WNW 16:59:21 74° WNW
Cosmos 2219 3.3 16:53:55 10° NNW 16:59:30 50° ENE 16:59:37 50° ENE
NOSS 2-3 (D) 3.2 16:57:47 10° SW 17:01:12 72° WSW 17:01:12 72° WSW
SPOT 1/Viking Rocket 4.1 16:59:35 10° S 17:04:42 58° W 17:09:51 10° NNW
OceanSat 1 rocket 4.4 17:00:42 10° SSE 17:05:27 84° ENE 17:10:12 10° NNW
Cosmos 1980 Rocket 2.0 17:01:11 10° SSW 17:06:50 77° ESE 17:08:01 56° NE
Nadezhda 2 Rocket 4.3 17:04:55 10° N 17:11:02 67° E 17:17:05 10° SSE
Cosmos 2369 4.2 17:09:28 10° S 17:13:46 44° SSE 17:13:46 44° SSE
Cosmos 2058 Rocket 3.1 17:10:33 10° S 17:14:42 75° SW 17:14:42 75° SW
Cosmos 1553 Rocket 3.8 17:14:27 10° S 17:20:33 76° E 17:22:04 53° NNE
NOSS 3-2 (C) 4.4 17:16:03 10° WSW 17:20:49 35° NW 17:23:02 27° N
Cosmos 2263 Rocket 2.2 17:15:16 10° NNW 17:20:57 81° WSW 17:23:09 39° SSE
Cosmos 2227 Rocket 3.6 17:28:18 10° NW 17:33:26 37° WSW 17:38:34 10° S
Cosmos 1538 Rocket 4.5 17:29:13 10° NNW 17:34:24 59° WSW 17:36:28 35° S
COSMO-SKYMED 1 4.0 17:39:14 34° WNW 17:39:14 34° WNW 17:42:43 10° SW
Meteor 2-2 Rocket 4.4 17:34:08 10° SSW 17:39:46 67° WNW 17:40:35 59° NNW
Cosmos 1697 Rocket 4.4 17:43:52 10° WSW 17:48:37 28° NW 17:50:44 22° NNW
USA 215 4.2 18:22:50 40° NNW 18:22:50 40° NNW 18:26:54 10° NW
USA 238 DEB 4.4 18:14:51 10° WSW 18:19:57 43° WNW 18:19:57 43° WNW
USA 238 4.4 18:14:57 10° WSW 18:20:01 43° WNW 18:20:01 43° WNW
